Date String (YYYY-MM-DD hh:mm:ss) UTC,Instrument flags,Ambient pressure (hPa),Sample flow (lpm),Bypass flow (lpm),Sample temperature (°C),Ambient temperature (°C),ASC tube jacket temperature (°C),LED temperature (°C),Box temperature (°C),Sample RH (%),Span deviation,Mass concentration (μg/m³),Mass concentration (μg/m³),Mass concentration (μg/m³)
DateTimeUTC,F1_M11,P_M11,Q1_M11,Q2_M11,T1_M11,T2_M11,T3_M11,T4_M11,T5_M11,U1_M11,ZSPAN_M11,X0_M11,X2_M11,X1_M11
2022-05-24 17:00:00,,0825.3,5.00,0.00,26.8,25.8,00.0,35.7,28.7,21.2,-001.6,0012.73,0009.27,0008.92
2022-05-24 17:01:00,,0825.3,5.00,0.00,26.8,25.8,00.0,35.7,28.7,21.4,-001.5,0013.21,0009.24,0008.92
2022-05-24 17:02:00,,0825.3,5.00,0.00,26.8,25.8,00.0,35.7,28.7,21.4,-001.4,0012.98,0009.25,0008.93
2022-05-24 17:03:00,,0825.3,5.01,0.00,26.8,25.8,00.0,35.7,28.7,21.4,-001.3,0012.83,0009.25,0008.92
2022-05-24 17:04:00,,0825.2,5.00,0.00,26.8,25.8,00.0,35.7,28.7,21.2,-001.3,0013.35,0009.25,0008.92
2022-05-24 17:05:00,,0825.2,4.99,0.00,26.8,25.8,00.0,35.7,28.7,21.3,-001.5,0013.84,0009.30,0008.93
2022-05-24 17:06:00,,0825.2,5.01,0.00,26.8,25.8,00.0,35.7,28.7,21.6,-001.4,0013.89,0009.31,0008.95
2022-05-24 17:07:00,,0825.3,5.00,0.00,26.8,25.8,00.0,35.7,28.7,21.6,-001.3,0014.00,0009.36,0008.99
2022-05-24 17:08:00,,0825.3,5.01,0.00,26.8,25.8,00.0,35.7,28.7,21.5,-001.0,0014.18,0009.41,0009.02
2022-05-24 17:09:00,,0825.2,5.00,0.00,26.8,25.8,00.0,35.7,28.7,21.2,-001.0,0014.78,0009.45,0009.04
2022-05-24 17:10:00,,0825.2,5.00,0.00,26.8,25.8,00.0,35.7,28.7,21.5,-001.8,0014.94,0009.50,0009.09
2022-05-24 17:11:00,,0825.3,5.00,0.00,26.8,25.8,00.0,35.7,28.7,21.2,-001.8,0014.96,0009.52,0009.12
2022-05-24 17:12:00,,0825.2,4.99,0.00,26.8,25.8,00.0,35.7,28.7,21.6,-001.9,0014.55,0009.60,0009.16
2022-05-24 17:13:00,,0825.3,5.01,0.00,26.8,25.8,00.0,35.7,28.7,21.8,-001.9,0014.33,0009.63,0009.20
2022-05-24 17:14:00,,0825.3,5.00,0.00,26.8,25.8,00.0,35.7,28.6,21.6,-001.8,0014.39,0009.69,0009.24
2022-05-24 17:15:00,,0825.2,4.99,0.00,26.8,25.8,00.0,35.7,28.6,21.8,-001.6,0014.38,0009.74,0009.28
2022-05-24 17:16:00,,0825.2,5.00,0.00,26.8,25.7,00.0,35.7,28.6,21.4,-001.2,0014.39,0009.79,0009.31
2022-05-24 17:17:00,,0825.2,5.00,0.00,26.8,25.7,00.0,35.7,28.6,21.4,-001.0,0014.66,0009.83,0009.34
2022-05-24 17:18:00,,0825.3,5.00,0.00,26.8,25.7,00.0,35.7,28.6,21.7,-001.2,0014.46,0009.86,0009.36
2022-05-24 17:19:00,,0825.3,4.99,0.00,26.8,25.7,00.0,35.7,28.6,21.8,-001.2,0014.21,0009.93,0009.40
2022-05-24 17:20:00,,0825.3,4.99,0.00,26.8,25.7,00.0,35.7,28.6,21.9,-001.4,0013.62,0009.99,0009.45
2022-05-24 17:21:00,,0825.3,5.00,0.00,26.8,25.7,00.0,35.7,28.6,22.0,-001.1,0013.57,0010.04,0009.51
2022-05-24 17:22:00,,0825.3,5.00,0.00,26.8,25.7,00.0,35.7,28.6,22.0,-001.0,0013.75,0010.13,0009.55
2022-05-24 17:23:00,,0825.3,4.99,0.00,26.7,25.7,00.0,35.7,28.6,22.1,-001.3,0013.71,0010.12,0009.57
2022-05-24 17:24:00,,0825.3,5.00,0.00,26.7,25.7,00.0,35.7,28.6,22.0,-001.2,0013.82,0010.16,0009.61
2022-05-24 17:25:00,,0825.3,5.00,0.00,26.7,25.7,00.0,35.7,28.6,21.8,-001.4,0013.92,0010.20,0009.63
2022-05-24 17:26:00,,0825.3,5.00,0.00,26.7,25.7,00.0,35.7,28.6,21.6,-001.5,0013.95,0010.26,0009.67
2022-05-24 17:27:00,,0825.4,5.00,0.00,26.7,25.7,00.0,35.7,28.6,21.8,-001.5,0013.41,0010.25,0009.69
2022-05-24 17:28:00,,0825.4,4.99,0.00,26.7,25.7,00.0,35.7,28.6,22.0,-001.6,0013.11,0010.23,0009.69
2022-05-24 17:29:00,,0825.4,4.99,0.00,26.7,25.7,00.0,35.7,28.6,21.9,-001.6,0013.07,0010.23,0009.70
2022-05-24 17:30:00,,0825.4,5.00,0.00,26.7,25.7,00.0,35.7,28.6,22.0,-001.5,0013.03,0010.20,0009.69
2022-05-24 17:31:00,,0825.4,5.00,0.00,26.7,25.7,00.0,35.7,28.6,21.9,-001.5,0013.05,0010.19,0009.68
2022-05-24 17:32:00,,0825.4,5.00,0.00,26.7,25.7,00.0,35.7,28.6,21.6,-001.4,0013.42,0010.19,0009.67
2022-05-24 17:33:00,,0825.4,5.01,0.00,26.7,25.7,00.0,35.7,28.6,21.5,-001.3,0014.25,0010.22,0009.69
2022-05-24 17:34:00,,0825.4,4.99,0.00,26.7,25.7,00.0,35.7,28.6,21.6,-001.1,0014.80,0010.26,0009.71
2022-05-24 17:35:00,,0825.3,4.99,0.00,26.7,25.7,00.0,35.7,28.6,21.7,-001.4,0015.59,0010.28,0009.69
2022-05-24 17:36:00,,0825.3,5.00,0.00,26.7,25.7,00.0,35.7,28.6,21.7,-001.3,0015.52,0010.26,0009.69
2022-05-24 17:37:00,,0825.3,5.01,0.00,26.7,25.7,00.0,35.7,28.6,21.5,-001.1,0015.35,0010.21,0009.67
2022-05-24 17:38:00,,0825.3,5.01,0.00,26.7,25.7,00.0,35.7,28.6,21.6,-001.3,0015.56,0010.24,0009.67
2022-05-24 17:39:00,,0825.3,5.00,0.00,26.7,25.7,00.0,35.7,28.6,21.6,-001.6,0015.76,0010.29,0009.68
2022-05-24 17:40:00,,0825.3,4.99,0.00,26.7,25.7,00.0,35.7,28.6,21.7,-001.8,0015.91,0010.32,0009.70
2022-05-24 17:41:00,,0825.3,5.01,0.00,26.7,25.7,00.0,35.7,28.6,21.7,-002.0,0016.06,0010.32,0009.72
2022-05-24 17:42:00,,0825.3,5.01,0.00,26.7,25.7,00.0,35.7,28.6,22.0,-001.9,0016.02,0010.31,0009.72
2022-05-24 17:43:00,,0825.3,5.00,0.00,26.7,25.7,00.0,35.7,28.6,22.2,-002.0,0016.22,0010.30,0009.71
2022-05-24 17:44:00,,0825.3,4.99,0.00,26.7,25.7,00.0,35.7,28.6,22.0,-001.7,0015.52,0010.27,0009.69
2022-05-24 17:45:00,,0825.3,5.01,0.00,26.7,25.7,00.0,35.7,28.5,21.6,-001.7,0015.70,0010.24,0009.66
2022-05-24 17:46:00,,0825.3,5.00,0.00,26.7,25.6,00.0,35.7,28.5,21.7,-001.5,0014.95,0010.19,0009.64
2022-05-24 17:47:00,,0825.3,5.00,0.00,26.7,25.6,00.0,35.7,28.5,21.7,-001.4,0015.17,0010.16,0009.63
2022-05-24 17:48:00,,0825.3,5.00,0.00,26.7,25.6,00.0,35.7,28.5,21.9,-001.6,0015.29,0010.18,0009.64
2022-05-24 17:49:00,,0825.3,4.99,0.00,26.7,25.6,00.0,35.7,28.5,21.8,-001.4,0015.12,0010.16,0009.65
2022-05-24 17:50:00,,0825.3,4.99,0.00,26.6,25.6,00.0,35.7,28.5,22.2,-001.2,0014.93,0010.12,0009.63
2022-05-24 17:51:00,,0825.3,5.00,0.00,26.6,25.6,00.0,35.6,28.5,22.5,-001.0,0015.34,0010.15,0009.63
2022-05-24 17:52:00,,0825.3,5.00,0.00,26.6,25.5,00.0,35.6,28.4,22.1,-000.9,0015.38,0010.20,0009.62
2022-05-24 17:53:00,,0825.3,5.00,0.00,26.6,25.5,00.0,35.6,28.4,21.7,-001.1,0015.34,0010.20,0009.60
2022-05-24 17:54:00,,0825.3,4.99,0.00,26.6,25.5,00.0,35.6,28.4,21.9,-001.2,0014.94,0010.17,0009.59
2022-05-24 17:55:00,,0825.2,4.99,0.00,26.6,25.5,00.0,35.6,28.4,21.7,-001.6,0014.77,0010.14,0009.57
2022-05-24 17:56:00,,0825.3,5.00,0.00,26.6,25.5,00.0,35.6,28.4,21.8,-001.9,0014.54,0010.07,0009.57
2022-05-24 17:57:00,,0825.2,5.01,0.00,26.6,25.5,00.0,35.6,28.4,21.8,-001.8,0014.37,0010.10,0009.59
2022-05-24 17:58:00,,0825.2,4.99,0.00,26.6,25.5,00.0,35.6,28.4,21.8,-001.9,0014.16,0010.11,0009.60
2022-05-24 17:59:00,,0825.2,5.00,0.00,26.6,25.5,00.0,35.6,28.4,21.6,-001.8,0013.98,0010.11,0009.60
